This demonstration page uses our WeatherBlox Daily Observations layout. Learn more.

Left ArrowRight Arrow

39.51506, -84.39828

Hourly Observations for June 23, 2015

Temp ( °F °C ) Dew Point ( °F °C ) Humidity (%) Winds ( mph kmh ) Pressure ( in mb ) Visibility ( mi km ) Precip ( " mm )
12:55 am 00:55 Clear 80 26.5 71 21.8 75 75 SW 12 19 29.91 1013 10 16 N/A
1:35 am 01:35 Clear 80 26.5 72 22 76 76 SW 12 19 29.91 1013 10 16 N/A
1:55 am 01:55 Clear 80 26.5 71 21.8 75 75 SW 14 22 29.91 1013 10 16 N/A
2:15 am 02:15 Clear 80 26.5 71 21.6 75 75 SW 14 22 29.91 1013 10 16 N/A
2:35 am 02:35 Clear 80 26.5 71 21.7 75 75 SW 13 20 29.91 1013 10 16 N/A
2:55 am 02:55 Partly Cloudy 80 26.5 71 21.7 75 75 SW 13 20 29.91 1013 10 16 N/A
3:15 am 03:15 Partly Cloudy 80 26.5 71 21.8 75 75 SW 10 17 29.91 1013 10 16 N/A
3:35 am 03:35 Partly Cloudy 80 26.5 72 22.3 78 78 SW 10 17 29.91 1013 10 16 N/A
3:55 am 03:55 Partly Cloudy 80 26.5 72 22 76 76 SW 13 20 29.91 1013 10 16 N/A
4:15 am 04:15 Partly Cloudy 80 26.5 72 22.3 78 78 SW 14 22 29.91 1013 10 16 N/A
4:35 am 04:35 Partly Cloudy 80 26.5 72 22.3 78 78 SW 10 17 29.91 1013 10 16 N/A
4:55 am 04:55 Partly Cloudy 80 26.5 73 22.5 79 79 SW 12 19 29.85 1011 10 16 N/A
5:15 am 05:15 Clear 80 26.5 73 22.5 79 79 SSW 15 24 29.85 1011 10 16 N/A
5:35 am 05:35 Clear 80 26.5 73 22.5 79 79 SSW 16 26 29.85 1011 10 16 N/A
5:55 am 05:55 Partly Cloudy 80 26.5 73 22.5 79 79 SW 13 20 29.85 1011 10 16 N/A
6:15 am 06:15 Sunny 80 26.5 73 22.5 79 79 SW 15 24 29.85 1011 10 16 N/A
6:35 am 06:35 Sunny 80 26.5 73 22.6 79 79 SW 16 26 29.85 1011 7 11 N/A
6:55 am 06:55 Sunny 80 26.5 73 22.6 79 79 SW 14 22 29.85 1011 7 11 N/A
7:15 am 07:15 Sunny 80 26.5 73 22.7 80 80 SW 15 24 29.85 1011 7 11 N/A
7:35 am 07:35 Partly Cloudy 80 26.5 73 22.7 80 80 WSW 14 22 29.85 1011 7 11 N/A
7:55 am 07:55 Mostly Cloudy 80 26.5 73 22.6 79 79 WSW 13 20 29.91 1013 7 11 N/A
8:15 am 08:15 Cloudy 80 26.5 73 22.7 80 80 WSW 10 17 29.91 1013 10 16 N/A
8:35 am 08:35 Cloudy 80 26.5 73 22.6 79 79 WSW 8 13 29.91 1013 7 11 N/A
8:55 am 08:55 Mostly Cloudy 80 26.7 73 22.6 78 78 WSW 9 15 29.91 1013 7 11 N/A
9:15 am 09:15 Partly Cloudy 82 27.7 74 23.1 76 76 SW 10 17 29.88 1012 7 11 N/A
9:35 am 09:35 Mostly Cloudy 82 28 73 23 74 74 WSW 13 20 29.91 1013 10 16 N/A
9:55 am 09:55 Cloudy 82 28 73 22.8 73 73 WSW 9 15 29.91 1013 10 16 N/A
10:15 am 10:15 Mostly Cloudy 82 28 73 22.7 73 73 WSW 15 24 29.91 1013 10 16 N/A
10:35 am 10:35 Mostly Cloudy 82 28 73 22.6 73 73 WSW 14 22 29.91 1013 10 16 N/A
10:55 am 10:55 Mostly Cloudy 83 28.6 73 22.9 71 71 W 15 24 29.91 1013 10 16 N/A
11:15 am 11:15 Mostly Cloudy 84 28.8 74 23.2 72 72 WNW 9 15 29.91 1013 10 16 N/A
11:35 am 11:35 Mostly Cloudy 84 29.1 73 22.9 69 69 W 14 22 29.91 1013 10 16 N/A
11:55 am 11:55 Mostly Cloudy 86 29.8 74 23.4 69 69 W 16 26 29.94 1014 10 16 N/A
12:15 pm 12:15 Mostly Cloudy 84 29 73 22.9 70 70 NW 14 22 29.94 1014 10 16 N/A
12:35 pm 12:35 Mostly Cloudy 83 28.4 72 22.2 69 69 NW 14 22 29.94 1014 10 16 N/A
12:55 pm 12:55 Cloudy 83 28.1 71 21.8 69 69 NW 10 17 29.94 1014 10 16 N/A
1:15 pm 13:15 Cloudy 83 28.1 71 21.7 68 68 NW 8 13 29.94 1014 10 16 N/A
1:35 pm 13:35 Cloudy 83 28.2 71 21.7 68 68 NW 8 13 30.00 1016 10 16 N/A
1:55 pm 13:55 Partly Cloudy 87 30.6 74 23.2 65 65 NNW 10 17 29.94 1014 10 16 N/A
2:15 pm 14:15 Partly Cloudy 87 30.4 73 23 65 65 WNW 10 17 29.94 1014 10 16 N/A
2:35 pm 14:35 Mostly Cloudy 88 31.2 73 22.9 61 61 WNW 9 15 29.94 1014 10 16 N/A
2:55 pm 14:55 Mostly Cloudy 85 29.4 71 21.5 63 63 NNW 10 17 29.94 1014 10 16 N/A
3:15 pm 15:15 Partly Cloudy 87 30.7 71 21.8 59 59 NW 10 17 29.94 1014 10 16 N/A
3:35 pm 15:35 Partly Cloudy 90 32.1 71 21.6 54 54 WNW 13 20 29.94 1014 10 16 N/A
3:55 pm 15:55 Partly Cloudy 89 31.7 69 20.3 51 51 NW 15 24 29.94 1014 10 16 N/A
4:15 pm 16:15 Partly Cloudy 87 30.7 67 19.4 51 51 NW 12 19 29.97 1015 10 16 N/A
4:35 pm 16:35 Partly Cloudy 88 31 66 18.8 48 48 WNW 13 20 29.94 1014 10 16 N/A
4:55 pm 16:55 Partly Cloudy 87 30.4 64 17.5 46 46 NW 15 24 29.97 1015 10 16 N/A
5:15 pm 17:15 Sunny 86 30 62 16.8 45 45 NW 9 15 29.94 1014 10 16 N/A
5:35 pm 17:35 Sunny 85 29.2 61 16.1 45 45 NW 12 19 29.97 1015 10 16 N/A
5:55 pm 17:55 Sunny 84 29 61 16.1 46 46 NNW 9 15 29.97 1015 10 16 N/A
6:15 pm 18:15 Sunny 83 28.6 60 15.6 45 45 NW 12 19 29.97 1015 10 16 N/A
6:35 pm 18:35 Sunny 83 28.2 59 15.1 45 45 NW 9 15 30.00 1016 10 16 N/A
6:55 pm 18:55 Sunny 82 28 57 14 42 42 NW 6 9 30.00 1016 10 16 N/A
7:15 pm 19:15 Sunny 82 27.7 52 11.1 36 36 WNW 8 13 30.00 1016 10 16 N/A
7:35 pm 19:35 Sunny 81 27.2 52 11.2 37 37 NW 6 9 30.00 1016 10 16 N/A
7:55 pm 19:55 Sunny 80 26.5 53 11.7 40 40 NW 6 9 30.03 1017 10 16 N/A
8:15 pm 20:15 Sunny 80 26.5 55 12.8 43 43 NW 5 7 30.03 1017 10 16 N/A
8:35 pm 20:35 Sunny 77 25.1 57 14 50 50 NW 3 6 30.03 1017 10 16 N/A
8:55 pm 20:55 Sunny 74 23.6 59 14.9 58 58 NW 3 6 30.06 1018 10 16 N/A
9:15 pm 21:15 Clear 74 23.6 62 16.6 65 65 N 3 6 30.06 1018 10 16 N/A
9:35 pm 21:35 Clear 72 22.2 63 17.1 73 73 N N/A 30.06 1018 10 16 N/A
9:55 pm 21:55 Clear 69 20.8 63 17.1 79 79 N N/A 30.06 1018 10 16 N/A
10:15 pm 22:15 Clear 69 20.8 63 17.3 80 80 N N/A 30.06 1018 10 16 N/A
10:35 pm 22:35 Clear 69 20.8 64 18 84 84 N N/A 30.06 1018 10 16 N/A
10:55 pm 22:55 Clear 69 20.8 64 18 84 84 N N/A 30.06 1018 10 16 N/A
11:15 pm 23:15 Clear 67 19.7 63 17 85 85 N N/A 30.06 1018 10 16 N/A
11:35 pm 23:35 Clear 67 19.5 62 16.7 84 84 NNW 3 6 30.06 1018 10 16 N/A
11:55 pm 23:55 Clear 67 19.5 62 16.8 84 84 N N/A 30.06 1018 10 16 N/A

Powered by AerisWeather